Voltar ao catálogo

CZ-6A DEB

AtivoSSO
NORAD 54451·DEBRIS·🇨🇳 China

Lançado Nov 11, 2022 de Taiyuan Satellite Launch Center

Loading…

Próximas Passagens (próximas 24 horas)

TLE

AtualizadoSource: Space-Track

Época: Sep 14, 2026, 02:23 UTC

1 54451U 22151GB  26257.09995503  .00001652  00000-0  58670-3 0  9995
2 54451  98.9054 320.8355 0072362 225.2595 134.2685 14.34372235199936

Acompanhe CZ-6A DEB em tempo real com AllMySat

Download on the App Store